Vorticity
6 6 6 6 5 6 7 9 8 7 6 7 8 8 8 6 5 5 7 9 9 8 7 7 7 7 8 8 9 10 11 11 12 12 13 13 14 14 14 14 13 13 12 10 9 8 7 6 7 8 9 10 10 10 10 9 9 9 9 8 8 7 6 5 5 5 4 4 3
6 6 5 3 4 5 6 7 7 6 6 6 7 8 9 9 7 6 6 7 8 8 7 5 5 5 6 7 8 9 9 10 10 11 11 12 12 12 12 13 13 13 13 12 11 9 8 8 8 8 9 10 11 11 11 10 10 10 10 10 9 9 8 8 7 6 6 5 5
6 6 6 4 3 4 4 4 6 6 6 6 6 6 8 10 9 7 5 4 5 5 5 5 4 4 4 5 6 7 7 8 8 9 9 10 10 10 11 11 12 12 12 13 13 12 12 11 10 10 10 10 10 10 10 10 10 10 10 10 10 9 9 8 8 7 7 7 7
5 6 6 5 3 2 2 3 4 6 6 6 6 6 6 8 8 7 5 3 3 3 4 4 4 4 4 4 4 5 5 6 7 7 8 9 9 10 10 10 10 11 11 12 13 13 14 14 13 13 12 11 11 10 10 10 10 10 10 10 9 9 9 9 8 8 8 8 8
5 5 6 6 4 2 2 3 4 5 6 7 7 7 6 6 7 7 6 5 4 4 4 4 4 4 4 4 3 3 4 4 5 6 7 8 8 9 9 9 10 10 10 11 11 12 13 14 14 14 13 12 12 11 11 10 9 9 9 9 9 9 9 9 8 8 8 8 8
5 5 5 6 5 4 3 3 4 5 6 7 8 8 7 6 7 8 9 9 8 8 8 7 7 6 5 4 4 3 3 4 4 5 5 6 7 8 8 9 9 9 9 9 10 11 11 12 12 12 12 12 12 12 11 11 10 9 8 8 8 8 8 8 8 8 8 8 8
5 4 5 5 6 5 5 4 4 4 5 6 6 7 7 7 9 11 12 14 14 14 13 12 11 10 8 6 4 4 3 3 3 3 4 4 5 6 7 7 8 8 8 9 9 10 10 10 11 11 11 11 12 12 11 11 11 10 9 8 8 8 8 8 8 8 8 8 8
6 6 5 6 6 6 5 4 4 3 3 3 4 5 5 6 7 9 11 13 14 14 14 14 14 12 10 8 6 5 4 3 3 2 2 2 3 4 5 6 7 8 8 9 9 9 9 9 10 10 10 10 11 11 11 11 11 10 10 9 8 8 7 7 7 7 7 7 7
6 6 6 6 6 6 6 5 4 3 3 3 3 3 3 5 5 6 7 8 8 9 10 11 12 12 11 9 8 7 6 5 4 3 2 1 1 2 3 4 5 6 7 8 8 8 8 8 9 9 10 10 10 10 10 10 10 9 9 9 8 8 7 7 6 6 6 6 6
6 6 6 6 6 6 6 6 6 5 4 4 4 3 2 3 4 4 3 3 3 4 5 6 7 8 9 9 8 8 7 7 6 4 3 1 0 -0 0 1 2 3 4 5 6 7 8 8 9 9 10 10 10 9 9 9 9 8 8 8 8 7 7 7 6 6 6 5 5
8 7 6 6 6 6 6 6 7 7 7 5 5 4 2 2 2 2 2 2 3 3 3 3 4 4 5 6 7 7 8 8 8 6 5 3 1 -0 -1 -0 0 1 2 3 4 5 6 7 8 8 9 9 9 9 9 9 9 8 8 8 8 7 7 7 6 6 6 6 6
9 8 8 7 6 6 5 4 5 7 7 7 5 4 4 4 3 3 4 4 5 4 3 3 2 3 3 4 5 5 6 7 8 7 7 5 4 2 1 -0 -0 -0 0 1 2 3 4 4 5 6 7 7 8 8 9 9 9 9 9 9 8 8 8 7 7 7 7 6 6
10 10 9 9 8 7 6 4 3 4 4 5 4 3 2 2 3 4 4 5 5 4 3 3 3 3 3 4 4 4 5 6 7 7 8 8 7 6 4 3 2 1 0 0 0 1 1 2 3 3 4 5 6 7 7 8 9 9 9 9 9 9 9 8 8 8 7 7 7
11 11 10 10 10 8 7 6 6 5 4 4 4 3 2 1 1 1 2 2 2 2 2 3 3 4 4 4 5 5 5 5 6 7 7 8 9 8 8 7 5 4 3 2 1 0 0 0 1 1 2 3 4 4 5 6 7 8 8 8 9 8 8 8 8 8 8 7 7
11 11 10 10 10 9 7 6 6 6 6 5 4 3 2 -0 -1 -1 -2 -1 -0 1 2 3 4 5 5 6 6 6 6 6 6 6 7 8 9 10 10 10 9 8 6 5 3 2 1 1 1 1 1 1 2 2 3 4 5 5 6 6 7 7 7 7 7 8 8 8 8
11 10 10 9 9 9 8 6 4 4 5 4 4 3 1 -1 -2 -3 -3 -2 -1 1 2 4 5 6 6 7 7 7 7 6 6 6 6 7 8 9 11 11 11 11 10 8 7 5 4 3 2 2 1 1 2 2 2 3 4 4 4 5 5 6 6 7 7 8 8 8 9
9 9 9 8 8 8 7 6 3 3 3 4 3 2 1 -1 -2 -2 -2 -2 -0 1 3 4 5 6 7 8 9 9 8 8 7 6 6 6 7 8 9 10 11 11 11 10 9 8 7 5 5 4 3 3 3 3 3 3 4 4 4 5 5 6 7 7 8 9 9 10 10
8 8 8 7 7 6 6 5 3 2 2 2 2 1 0 -1 -2 -2 -2 -1 -0 1 3 5 6 7 8 9 10 10 10 10 9 8 7 6 6 7 8 9 10 11 11 11 11 10 9 8 7 7 6 6 6 5 5 5 5 5 6 6 7 8 8 9 10 10 11 12 12
6 6 6 6 6 5 4 3 3 2 2 1 1 1 0 -0 -1 -2 -1 -0 1 2 4 6 8 9 10 11 11 12 12 11 11 10 8 7 6 7 7 8 9 10 11 11 11 11 10 10 10 9 9 8 8 7 7 7 7 7 8 8 9 10 10 11 12 13 14 14 14
5 5 6 6 6 5 4 3 3 3 2 1 0 -0 -0 -1 -1 -1 -0 1 3 5 7 9 11 12 13 13 13 13 13 13 12 11 10 9 8 7 7 8 9 10 11 11 11 11 11 11 11 10 10 10 9 9 9 8 8 9 9 10 11 12 13 14 14 15 15 15 15
5 5 5 5 5 5 4 4 4 3 3 2 1 0 -0 -0 0 1 2 4 7 10 13 15 15 15 15 14 14 14 14 14 13 13 12 10 10 9 9 9 9 10 10 11 11 11 11 11 11 11 11 10 10 10 10 10 10 11 11 12 13 14 15 15 16 16 16 17 17
6 6 6 5 5 5 5 5 5 5 4 3 3 2 1 2 3 5 8 11 15 17 19 19 18 17 16 15 14 14 14 14 14 13 13 12 12 11 10 10 10 10 10 11 11 11 11 11 11 11 11 11 11 12 12 12 13 14 14 15 15 16 16 17 17 18 18 18 18
9 8 8 7 7 7 7 6 6 6 6 5 5 4 5 7 9 13 17 20 22 22 22 20 18 17 16 15 14 14 13 14 14 14 13 13 12 11 11 10 10 10 11 11 12 12 12 12 12 12 13 13 13 14 15 15 15 16 16 16 17 17 18 18 18 18 18 18 17
14 13 12 12 11 10 10 9 9 9 9 9 9 11 13 17 20 23 24 25 24 22 20 18 16 15 14 14 13 13 13 13 13 13 13 12 11 11 11 11 11 11 12 12 13 13 14 14 14 15 15 16 16 16 17 17 18 18 19 20 20 20 20 19 18 16 15 13 11
19 19 18 18 17 16 15 15 15 15 16 17 19 21 24 26 26 26 25 22 20 18 16 14 13 13 12 12 12 12 12 12 12 12 12 12 12 12 12 12 12 13 13 14 14 15 16 17 17 18 18 18 19 19 20 20 20 20 20 19 19 18 17 15 13 10 8 6 4
23 24 23 23 23 22 22 23 23 23 24 25 26 27 27 26 24 22 20 17 16 14 13 12 12 12 12 12 12 12 12 12 13 13 14 14 14 14 15 15 16 16 17 18 19 20 20 21 21 21 21 21 22 22 21 20 19 17 16 15 14 13 12 10 9 8 8 9 10
24 24 24 24 25 25 25 25 26 26 26 26 25 24 22 20 19 17 15 14 13 13 12 12 12 12 13 13 13 13 13 14 14 15 16 16 17 18 19 20 21 22 23 23 23 23 22 22 21 21 20 19 18 17 15 14 12 11 10 10 10 10 10 11 12 12 13 13 13
21 21 21 22 22 22 22 23 23 22 21 20 19 18 17 16 15 14 14 13 13 13 13 13 14 14 14 14 14 15 15 16 17 18 20 22 23 24 25 25 25 24 22 20 18 16 15 14 13 13 12 12 11 10 10 10 10 10 10 10 10 10 10 10 10 10 9 9 8
18 18 18 18 19 19 19 19 18 18 17 17 16 16 15 15 15 15 15 15 15 15 15 15 15 15 15 16 17 18 20 22 23 25 26 26 26 24 22 20 16 13 10 8 7 6 5 6 6 7 8 8 9 9 9 9 9 9 8 7 7 6 6 6 5 5 5 4 4
18 18 17 17 17 17 17 17 17 16 16 16 16 16 16 16 16 16 16 15 15 15 16 16 17 18 20 22 24 25 26 26 25 23 21 18 14 11 7 4 1 -0 -1 -0 3 5 8 9 10 10 10 9 8 8 8 7 7 6 5 5 4 4 4 4 4 4 4 4 4
18 18 18 18 17 17 17 17 17 17 16 16 16 16 16 16 15 15 15 15 16 17 18 20 22 24 25 26 24 21 18 14 10 7 3 0 -2 -3 -3 -2 0 4 7 10 11 12 12 11 10 9 8 7 6 6 5 5 5 4 4 4 4 4 4 4 4 4 4 4 4
17 17 17 16 16 16 16 16 15 15 15 15 15 15 15 14 15 15 16 17 18 19 21 22 22 20 17 12 7 3 -1 -4 -5 -5 -4 -2 1 4 7 10 12 13 13 13 12 11 9 8 7 6 6 5 5 5 5 4 4 4 4 4 4 4 4 4 4 4 4 5 5
15 15 15 14 14 14 13 13 13 13 13 13 13 14 14 15 16 17 18 19 19 18 16 13 7 2 -3 -7 -8 -7 -5 -1 3 7 10 13 15 15 15 14 13 12 11 9 8 7 6 6 5 5 5 5 5 5 5 5 5 5 5 5 5 5 5 5 5 5 5 4 4
14 14 14 14 14 14 14 15 15 16 17 17 18 18 19 19 19 18 17 15 11 6 1 -4 -7 -9 -9 -7 -2 4 10 16 18 18 18 16 15 13 11 10 9 8 7 6 6 6 6 5 5 5 5 5 5 5 5 5 5 5 5 5 5 5 4 4 4 4 4 4 4
18 18 19 19 19 20 20 20 21 21 20 20 20 19 17 15 13 9 6 2 -2 -5 -7 -8 -7 -5 -1 4 11 15 17 17 15 13 11 10 9 8 7 7 7 7 6 6 6 6 6 6 5 5 5 5 5 5 5 5 5 5 4 4 4 4 4 4 4 4 4 4 4
21 21 21 21 20 19 17 16 14 12 11 9 8 6 4 1 -1 -4 -5 -5 -5 -3 -2 -1 -0 3 6 11 13 13 12 10 9 8 8 8 7 7 7 7 7 6 6 6 6 5 5 5 5 5 5 5 5 5 5 5 4 4 4 4 4 4 4 4 4 4 4 4 4
12 11 9 8 5 3 2 1 0 -0 0 0 0 0 -0 -1 -1 -0 1 3 4 5 5 5 6 8 10 11 11 10 9 8 8 8 7 7 7 7 6 6 6 5 5 5 5 5 5 4 4 4 5 5 5 5 5 4 4 4 4 4 4 4 5 5 5 5 5 5 5
-1 -2 -2 -3 -3 -3 -2 -0 3 6 9 11 13 14 15 15 15 15 15 14 13 11 10 9 10 10 11 10 9 9 8 8 7 7 6 6 6 6 5 5 5 5 5 4 4 4 4 4 4 5 5 5 5 5 5 5 5 5 5 5 5 5 5 5 5 5 5 5 5
5 5 5 6 7 8 10 13 15 17 19 21 22 23 23 23 21 20 18 15 13 11 11 10 10 10 9 8 8 7 7 6 6 6 5 5 5 5 5 4 4 4 4 4 4 4 5 5 5 5 5 5 5 5 5 5 5 5 5 5 5 5 5 5 5 5 4 4 4
16 16 16 16 16 16 16 16 16 16 16 16 16 16 16 15 14 13 12 11 10 10 9 9 8 8 7 6 6 5 5 5 5 5 5 5 5 5 5 5 5 4 5 5 5 5 5 5 5 6 6 6 6 6 6 6 5 5 5 5 5 4 4 4 4 4 4 4 4
16 16 15 14 14 14 13 12 12 11 11 11 10 10 10 10 9 9 8 8 8 7 7 6 6 6 5 5 5 5 5 5 5 5 5 5 5 5 5 5 5 5 5 5 6 6 6 6 6 6 6 5 5 5 5 5 5 4 4 4 4 4 4 4 4 4 4 4 4
Height
5669 5672 5674 5675 5677 5680 5681 5679 5680 5681 5683 5685 5686 5687 5689 5690 5691 5692 5694 5695 5696 5697 5698 5699 5699 5699 5700 5701 5701 5702 5703 5703 5704 5705 5705 5706 5707 5708 5708 5709 5709 5709 5710 5710 5710 5711 5711 5711 5711 5712 5713 5713 5714 5714 5714 5715 5715 5715 5715 5715 5714 5714 5714 5714 5714 5714 5714 5714 5714
5668 5669 5671 5674 5676 5675 5674 5676 5677 5679 5680 5682 5683 5684 5686 5688 5688 5689 5690 5692 5693 5694 5694 5695 5696 5697 5697 5698 5699 5699 5700 5701 5701 5702 5703 5704 5704 5704 5705 5705 5706 5706 5707 5707 5707 5707 5708 5708 5709 5709 5709 5710 5710 5711 5711 5711 5712 5712 5711 5711 5711 5711 5711 5710 5710 5710 5710 5710 5710
5665 5667 5669 5673 5672 5670 5670 5673 5674 5676 5677 5679 5680 5682 5684 5685 5685 5686 5687 5688 5689 5690 5691 5692 5693 5694 5695 5695 5696 5696 5697 5698 5699 5699 5700 5701 5701 5701 5702 5703 5703 5703 5704 5704 5704 5704 5704 5705 5705 5706 5706 5707 5707 5707 5707 5708 5708 5708 5708 5708 5708 5707 5707 5706 5706 5706 5706 5706 5706
5662 5664 5666 5667 5666 5666 5669 5670 5672 5674 5675 5676 5678 5680 5682 5681 5681 5682 5684 5685 5686 5687 5688 5689 5690 5691 5692 5693 5693 5694 5694 5695 5696 5697 5698 5698 5699 5699 5699 5700 5700 5700 5700 5701 5701 5701 5701 5702 5702 5703 5703 5703 5703 5704 5704 5704 5704 5704 5704 5704 5704 5704 5703 5703 5703 5703 5703 5703 5702
5658 5660 5661 5661 5663 5665 5667 5668 5669 5671 5673 5674 5675 5677 5678 5678 5678 5679 5680 5682 5683 5684 5685 5686 5688 5689 5689 5690 5690 5691 5692 5693 5693 5694 5695 5695 5696 5696 5696 5697 5697 5697 5697 5698 5698 5698 5698 5699 5699 5699 5699 5699 5700 5700 5700 5700 5701 5701 5700 5700 5700 5700 5699 5699 5699 5699 5699 5699 5698
5655 5657 5658 5659 5661 5663 5664 5665 5667 5669 5670 5671 5673 5674 5674 5675 5676 5676 5678 5679 5680 5681 5682 5684 5685 5686 5686 5687 5688 5689 5689 5690 5691 5691 5692 5692 5693 5693 5694 5694 5694 5694 5695 5695 5695 5695 5695 5695 5695 5696 5696 5696 5696 5696 5696 5697 5697 5697 5697 5697 5696 5696 5696 5695 5695 5695 5695 5694 5694
5652 5654 5656 5657 5659 5660 5662 5663 5665 5667 5668 5669 5670 5672 5673 5673 5673 5674 5675 5676 5677 5679 5680 5681 5682 5683 5684 5684 5685 5686 5687 5687 5688 5688 5689 5689 5690 5690 5691 5691 5691 5692 5692 5692 5692 5692 5692 5692 5692 5692 5693 5693 5693 5692 5692 5693 5693 5693 5693 5693 5693 5692 5692 5691 5691 5691 5691 5690 5690
5649 5652 5653 5655 5656 5658 5659 5661 5663 5664 5666 5667 5668 5670 5671 5672 5671 5671 5672 5673 5675 5676 5677 5678 5679 5680 5681 5682 5682 5683 5684 5684 5685 5686 5686 5686 5687 5687 5688 5688 5688 5689 5689 5689 5689 5689 5689 5689 5689 5689 5689 5689 5689 5689 5689 5689 5689 5689 5689 5689 5689 5689 5688 5687 5687 5687 5686 5686 5686
5647 5649 5650 5652 5654 5655 5657 5659 5660 5662 5664 5665 5666 5668 5669 5669 5669 5669 5670 5671 5672 5673 5674 5675 5676 5677 5678 5679 5679 5680 5681 5682 5682 5683 5683 5684 5684 5684 5684 5685 5685 5686 5686 5686 5686 5686 5686 5686 5686 5686 5686 5686 5686 5686 5685 5685 5685 5685 5685 5685 5684 5684 5684 5683 5683 5683 5682 5682 5682
5644 5646 5648 5649 5651 5653 5654 5656 5658 5659 5661 5661 5663 5664 5665 5665 5666 5666 5667 5668 5669 5670 5671 5672 5673 5674 5675 5676 5677 5677 5678 5679 5679 5680 5680 5680 5681 5681 5682 5682 5682 5682 5683 5683 5683 5683 5683 5683 5683 5683 5683 5683 5683 5682 5682 5682 5682 5681 5681 5680 5680 5680 5680 5679 5679 5679 5678 5678 5678
5640 5643 5645 5646 5648 5650 5652 5653 5655 5657 5658 5658 5659 5661 5662 5662 5662 5663 5664 5665 5667 5668 5669 5669 5670 5671 5672 5673 5674 5674 5675 5676 5676 5677 5677 5678 5678 5678 5678 5679 5679 5679 5679 5679 5679 5679 5680 5680 5680 5680 5680 5679 5679 5679 5678 5678 5678 5677 5677 5676 5676 5676 5676 5675 5675 5674 5674 5674 5673
5638 5639 5642 5644 5645 5648 5649 5650 5652 5654 5655 5655 5656 5658 5659 5659 5659 5660 5661 5663 5664 5665 5666 5667 5668 5669 5669 5670 5671 5672 5672 5673 5673 5674 5674 5674 5675 5675 5675 5675 5676 5676 5676 5676 5676 5676 5676 5676 5676 5676 5676 5676 5675 5675 5674 5674 5674 5674 5673 5673 5673 5672 5672 5671 5671 5670 5670 5669 5669
5635 5637 5639 5641 5643 5645 5647 5649 5650 5651 5652 5652 5653 5655 5656 5656 5657 5658 5659 5660 5661 5662 5663 5664 5665 5666 5667 5667 5668 5669 5669 5670 5670 5671 5671 5671 5672 5672 5672 5672 5672 5673 5673 5673 5673 5673 5673 5673 5673 5673 5672 5672 5672 5671 5671 5670 5670 5670 5669 5669 5669 5668 5668 5667 5666 5666 5665 5664 5664
5633 5635 5637 5639 5640 5643 5644 5646 5647 5649 5649 5650 5651 5652 5653 5654 5654 5655 5656 5657 5658 5659 5660 5661 5662 5663 5664 5664 5665 5666 5666 5667 5667 5668 5668 5668 5668 5669 5669 5669 5669 5669 5669 5669 5669 5669 5669 5669 5669 5669 5669 5668 5668 5668 5667 5667 5666 5666 5665 5665 5664 5664 5663 5663 5662 5661 5661 5660 5659
5631 5633 5634 5636 5638 5640 5642 5643 5644 5645 5647 5647 5648 5649 5650 5651 5652 5653 5654 5655 5656 5657 5658 5659 5659 5660 5661 5661 5662 5663 5663 5664 5664 5664 5664 5665 5665 5665 5665 5665 5665 5665 5665 5665 5665 5665 5665 5665 5664 5664 5664 5664 5664 5664 5663 5663 5662 5662 5661 5660 5660 5659 5659 5658 5657 5657 5656 5655 5655
5628 5630 5632 5633 5635 5637 5639 5640 5641 5642 5643 5644 5646 5647 5647 5649 5649 5650 5652 5652 5653 5654 5655 5656 5656 5657 5658 5659 5659 5659 5660 5660 5661 5661 5661 5662 5662 5662 5662 5662 5662 5662 5662 5662 5662 5661 5661 5661 5661 5660 5660 5660 5660 5659 5659 5659 5658 5657 5656 5656 5655 5654 5654 5653 5653 5652 5651 5651 5650
5625 5628 5630 5631 5632 5634 5635 5637 5638 5639 5640 5642 5643 5644 5645 5646 5647 5648 5649 5650 5650 5651 5652 5653 5653 5654 5655 5655 5656 5656 5657 5657 5658 5658 5658 5658 5658 5658 5658 5658 5658 5658 5658 5658 5658 5658 5657 5657 5657 5656 5656 5656 5656 5655 5654 5654 5653 5653 5652 5651 5650 5650 5649 5648 5648 5647 5647 5646 5645
5623 5625 5627 5628 5630 5631 5632 5634 5635 5636 5638 5639 5640 5642 5643 5644 5644 5645 5646 5647 5648 5649 5649 5650 5650 5651 5652 5652 5653 5653 5654 5654 5654 5654 5655 5655 5655 5655 5655 5654 5654 5654 5654 5654 5654 5654 5653 5653 5653 5652 5652 5652 5651 5651 5650 5649 5649 5648 5647 5647 5646 5645 5644 5644 5643 5642 5642 5641 5640
5620 5622 5624 5625 5627 5629 5630 5631 5633 5634 5635 5637 5638 5639 5640 5641 5642 5643 5644 5644 5645 5646 5646 5647 5648 5648 5649 5649 5649 5650 5650 5650 5651 5651 5651 5651 5651 5651 5651 5651 5650 5650 5650 5650 5650 5649 5649 5649 5649 5648 5648 5647 5647 5646 5646 5645 5644 5644 5643 5642 5641 5640 5640 5639 5639 5638 5637 5636 5635
5618 5619 5621 5623 5625 5626 5628 5629 5630 5632 5633 5634 5636 5637 5638 5639 5639 5640 5641 5642 5642 5643 5644 5644 5645 5645 5646 5646 5646 5647 5647 5647 5647 5648 5648 5648 5648 5648 5647 5647 5647 5647 5646 5646 5646 5645 5645 5644 5644 5644 5643 5643 5642 5642 5641 5641 5640 5639 5639 5638 5637 5636 5635 5634 5634 5633 5632 5631 5630
5615 5617 5619 5620 5622 5624 5625 5627 5628 5629 5631 5632 5634 5634 5635 5636 5637 5638 5638 5639 5639 5640 5641 5641 5642 5642 5643 5643 5643 5643 5644 5644 5644 5644 5644 5644 5644 5644 5644 5644 5643 5643 5642 5642 5641 5641 5641 5640 5640 5639 5639 5639 5638 5638 5637 5636 5635 5635 5634 5633 5632 5631 5631 5630 5629 5628 5627 5626 5625
5613 5614 5616 5618 5620 5621 5623 5624 5625 5627 5628 5629 5631 5632 5633 5634 5634 5635 5636 5636 5637 5638 5638 5639 5639 5639 5639 5640 5640 5640 5640 5640 5640 5640 5640 5640 5640 5640 5640 5640 5639 5639 5638 5638 5638 5637 5637 5636 5636 5635 5635 5634 5634 5633 5633 5632 5631 5630 5629 5629 5628 5627 5626 5625 5625 5624 5623 5622 5621
5610 5612 5614 5616 5617 5619 5620 5622 5623 5624 5626 5627 5628 5629 5630 5631 5632 5633 5633 5634 5634 5635 5635 5636 5636 5636 5636 5637 5637 5637 5637 5637 5637 5637 5637 5637 5637 5636 5636 5636 5635 5635 5635 5634 5634 5634 5633 5633 5632 5632 5631 5630 5630 5629 5628 5628 5627 5626 5625 5624 5624 5623 5622 5621 5620 5619 5619 5618 5617
5608 5610 5612 5614 5615 5617 5618 5619 5621 5622 5624 5624 5626 5627 5628 5629 5629 5630 5631 5631 5632 5632 5633 5633 5633 5633 5634 5634 5634 5634 5634 5634 5634 5634 5633 5633 5633 5633 5632 5632 5632 5632 5631 5631 5630 5630 5629 5629 5629 5628 5627 5626 5626 5625 5624 5623 5622 5622 5621 5620 5619 5618 5618 5617 5616 5615 5614 5614 5613
5606 5608 5610 5612 5613 5615 5616 5618 5619 5620 5621 5622 5624 5625 5626 5626 5627 5628 5628 5629 5629 5629 5630 5630 5630 5630 5630 5631 5631 5631 5631 5631 5631 5630 5630 5630 5630 5630 5629 5629 5629 5628 5628 5627 5627 5626 5626 5625 5625 5624 5623 5622 5622 5621 5620 5619 5618 5617 5617 5616 5615 5614 5613 5612 5612 5611 5610 5609 5608
5605 5607 5608 5610 5611 5613 5614 5615 5617 5618 5619 5620 5621 5622 5623 5624 5624 5625 5626 5626 5626 5627 5627 5627 5628 5628 5628 5628 5628 5628 5628 5628 5628 5628 5628 5627 5627 5627 5626 5626 5625 5625 5625 5624 5624 5623 5623 5622 5621 5620 5619 5619 5618 5617 5616 5615 5614 5613 5613 5612 5611 5610 5609 5609 5608 5607 5606 5605 5604
5603 5605 5607 5608 5609 5611 5612 5614 5615 5616 5617 5618 5619 5620 5621 5621 5622 5623 5623 5624 5624 5624 5625 5625 5625 5625 5626 5626 5626 5626 5626 5626 5626 5625 5625 5625 5624 5624 5624 5623 5623 5622 5622 5621 5620 5620 5619 5619 5618 5617 5616 5615 5614 5613 5612 5611 5610 5610 5609 5608 5607 5607 5606 5605 5604 5603 5602 5601 5600
5602 5604 5605 5606 5608 5609 5611 5612 5613 5614 5615 5616 5617 5618 5619 5619 5620 5621 5621 5622 5622 5623 5623 5623 5623 5624 5624 5624 5624 5624 5624 5623 5623 5623 5622 5622 5622 5621 5621 5620 5620 5619 5619 5618 5618 5617 5616 5615 5614 5614 5613 5612 5611 5610 5609 5608 5607 5606 5605 5604 5604 5603 5602 5601 5600 5599 5599 5598 5596
5601 5602 5604 5605 5607 5608 5609 5611 5612 5613 5614 5615 5616 5616 5617 5618 5619 5619 5619 5620 5620 5621 5621 5621 5621 5621 5621 5621 5621 5621 5621 5621 5620 5620 5620 5619 5619 5619 5618 5618 5617 5616 5616 5615 5614 5614 5613 5612 5611 5610 5609 5609 5608 5607 5606 5605 5604 5603 5602 5601 5600 5599 5599 5598 5597 5596 5595 5594 5593
5600 5602 5603 5604 5606 5607 5609 5609 5611 5612 5613 5613 5614 5615 5616 5616 5617 5617 5618 5618 5619 5619 5619 5619 5619 5619 5619 5619 5619 5619 5619 5618 5618 5618 5617 5617 5616 5616 5615 5615 5614 5614 5613 5612 5611 5610 5609 5609 5608 5607 5606 5605 5605 5604 5603 5602 5601 5600 5599 5598 5597 5596 5594 5594 5593 5591 5590 5589 5588
5599 5601 5602 5604 5605 5606 5607 5608 5609 5610 5611 5612 5613 5613 5614 5614 5615 5615 5615 5616 5616 5616 5616 5617 5617 5617 5617 5617 5617 5617 5616 5616 5616 5615 5615 5614 5614 5614 5613 5612 5611 5610 5609 5609 5608 5607 5606 5606 5605 5604 5603 5603 5602 5601 5600 5599 5598 5596 5595 5594 5593 5592 5590 5589 5588 5587 5586 5585 5584
5599 5600 5601 5603 5604 5605 5606 5607 5608 5609 5609 5610 5610 5611 5612 5612 5613 5613 5613 5614 5614 5614 5614 5615 5615 5615 5615 5615 5615 5615 5614 5614 5614 5613 5613 5612 5611 5610 5609 5609 5608 5608 5607 5606 5605 5604 5604 5603 5602 5601 5600 5599 5599 5597 5596 5595 5594 5593 5591 5590 5589 5588 5586 5585 5584 5582 5581 5579 5578
5598 5599 5600 5601 5603 5604 5604 5605 5606 5607 5607 5608 5609 5609 5610 5610 5610 5611 5611 5612 5612 5613 5613 5613 5613 5613 5613 5613 5613 5612 5612 5612 5611 5610 5610 5609 5608 5608 5607 5606 5606 5605 5604 5604 5603 5602 5601 5600 5599 5598 5597 5596 5595 5594 5593 5591 5590 5589 5588 5586 5585 5583 5582 5580 5579 5577 5576 5574 5572
5598 5599 5600 5601 5602 5603 5604 5604 5605 5606 5606 5607 5608 5608 5609 5609 5609 5609 5610 5610 5611 5611 5611 5611 5611 5611 5611 5611 5611 5611 5610 5609 5609 5608 5607 5607 5606 5605 5605 5604 5604 5603 5602 5601 5600 5599 5598 5597 5596 5595 5594 5593 5592 5590 5589 5588 5586 5584 5583 5582 5580 5578 5577 5575 5573 5571 5570 5568 5566
5598 5599 5600 5601 5602 5603 5603 5604 5605 5605 5606 5606 5607 5607 5608 5608 5608 5609 5609 5609 5609 5609 5609 5609 5609 5610 5610 5609 5609 5609 5608 5607 5607 5606 5605 5605 5604 5603 5603 5602 5601 5600 5599 5598 5597 5596 5595 5594 5593 5591 5590 5589 5588 5586 5585 5583 5581 5580 5578 5576 5574 5573 5571 5569 5567 5565 5564 5562 5560
5598 5599 5600 5601 5602 5602 5603 5604 5604 5605 5605 5606 5606 5607 5607 5607 5607 5608 5608 5608 5608 5608 5608 5609 5609 5609 5609 5608 5607 5607 5606 5605 5605 5604 5604 5603 5602 5601 5600 5599 5598 5597 5596 5595 5594 5592 5591 5590 5589 5587 5586 5585 5583 5582 5580 5578 5576 5574 5573 5571 5569 5567 5565 5564 5562 5560 5559 5557 5555
5598 5599 5600 5601 5601 5602 5603 5603 5604 5604 5605 5605 5605 5606 5606 5606 5606 5606 5606 5606 5607 5607 5607 5607 5607 5607 5607 5606 5606 5605 5604 5604 5603 5602 5601 5600 5599 5599 5597 5596 5595 5594 5593 5591 5589 5588 5587 5585 5584 5582 5581 5579 5578 5577 5575 5573 5571 5569 5568 5566 5564 5563 5561 5559 5557 5555 5554 5552 5550
5598 5599 5600 5600 5601 5602 5602 5603 5603 5604 5604 5604 5604 5604 5605 5605 5605 5605 5605 5605 5606 5606 5606 5606 5606 5606 5605 5604 5604 5603 5602 5601 5600 5599 5599 5598 5596 5595 5594 5593 5591 5590 5588 5586 5585 5583 5582 5580 5578 5577 5576 5574 5573 5572 5570 5569 5567 5565 5564 5562 5560 5558 5556 5554 5552 5550 5548 5546 5544
5598 5599 5599 5600 5601 5601 5602 5602 5603 5603 5603 5603 5604 5604 5604 5604 5604 5604 5604 5605 5605 5605 5605 5605 5604 5604 5603 5602 5601 5600 5599 5599 5597 5596 5595 5594 5593 5591 5590 5588 5587 5585 5584 5582 5580 5579 5577 5576 5574 5573 5572 5570 5569 5568 5567 5565 5563 5561 5559 5557 5555 5553 5551 5549 5547 5544 5542 5539 5537
5598 5599 5599 5600 5601 5601 5602 5602 5602 5603 5603 5603 5603 5603 5603 5604 5604 5604 5604 5604 5604 5603 5603 5603 5602 5601 5600 5599 5599 5597 5596 5595 5594 5592 5591 5590 5589 5587 5586 5584 5583 5582 5580 5579 5577 5575 5574 5573 5571 5569 5568 5566 5565 5564 5562 5560 5558 5556 5554 5552 5550 5548 5545 5543 5540 5538 5535 5533 5530
5598 5599 5599 5600 5600 5601 5601 5602 5602 5602 5602 5602 5602 5602 5602 5602 5602 5602 5602 5602 5602 5601 5601 5600 5599 5599 5597 5596 5595 5594 5593 5591 5590 5589 5587 5586 5585 5584 5583 5581 5580 5578 5577 5575 5574 5572 5570 5569 5567 5565 5563 5561 5560 5558 5557 5555 5553 5550 5548 5546 5544 5542 5539 5536 5534 5531 5529 5526 5523